Temperature
27 28 27 27 27 27 27 27 28 28 28 29 28 28 27 26 25 24 23 23 22 21 21 20 19 19 19 18 18 18 17 17 17 16 16 15 15 15 14 14 14 14 13 13
25 26 27 27 27 27 27 27 28 28 28 29 28 27 26 26 25 25 24 23 22 22 21 20 20 19 19 19 18 18 18 17 17 16 16 16 15 15 15 14 14 14 14 13
24 26 26 25 27 27 27 28 28 27 28 28 27 27 26 25 25 25 24 24 23 22 21 21 20 20 19 19 19 18 18 17 17 17 16 16 15 15 15 15 14 14 14 14
24 24 23 26 28 28 27 28 28 28 28 27 27 25 25 24 24 24 24 24 23 22 22 21 21 20 20 19 19 19 18 17 17 17 16 16 16 15 15 15 15 14 14 14
23 23 25 26 26 27 26 26 27 27 27 26 25 25 24 23 23 23 23 23 23 22 22 21 21 20 20 19 19 19 18 18 17 17 16 16 16 16 15 15 15 15 14 14
23 23 23 25 26 25 25 25 25 25 25 25 25 26 26 22 21 22 22 22 22 22 21 21 20 20 20 19 19 19 18 18 17 17 17 16 16 16 15 15 15 15 14 14
22 23 24 25 24 24 24 23 23 23 23 23 24 23 21 21 20 20 21 21 21 21 21 21 20 20 19 19 19 19 18 17 17 17 17 16 16 16 15 15 15 15 14 14
22 22 23 23 24 24 22 21 22 22 22 22 21 20 20 20 19 19 20 20 20 20 20 20 20 20 19 18 18 18 17 17 17 17 16 16 16 16 15 15 14 14 14 14
22 22 21 21 21 20 20 20 21 21 20 20 20 20 19 19 18 19 19 19 19 20 20 19 19 19 18 18 17 17 17 17 16 16 16 15 15 15 15 14 14 14 14 14
21 22 21 20 20 20 19 19 19 19 19 19 19 19 18 18 17 17 18 18 18 19 18 18 18 18 17 17 17 17 16 16 16 16 15 15 15 14 14 14 14 14 14 13
20 21 21 20 19 19 18 19 19 19 19 18 18 18 18 17 17 17 16 17 17 17 17 17 17 17 16 16 16 16 16 16 15 15 14 14 14 14 13 13 13 13 13 13
20 20 20 19 18 18 18 18 18 18 17 17 17 17 16 16 16 16 16 16 16 16 16 16 16 16 16 16 16 15 15 15 15 14 14 13 13 13 13 13 13 13 12 12
18 18 18 17 17 17 17 17 16 16 16 16 16 16 15 15 15 15 15 15 15 15 15 15 15 15 15 14 14 14 14 14 14 14 13 13 13 13 13 12 12 12 12 12
16 16 17 17 17 16 16 16 16 15 15 15 15 15 15 14 14 14 14 14 14 14 14 14 14 14 13 13 13 13 13 13 13 13 13 13 12 12 12 12 12 12 12 11
15 15 16 15 15 15 15 15 15 15 14 14 14 14 14 14 14 13 13 13 13 13 13 13 13 13 13 13 13 13 12 12 12 12 12 12 12 12 12 12 11 11 11 11
14 15 15 15 15 14 14 14 14 14 13 13 13 13 13 13 13 13 12 12 13 13 12 12 12 12 12 12 12 12 12 12 11 11 12 12 12 12 12 11 11 11 11 11
14 14 14 14 14 14 14 14 13 13 13 13 12 12 12 12 12 12 12 12 12 12 11 11 11 11 11 11 11 11 11 11 11 11 11 11 11 11 11 11 11 10 10 10
13 13 13 13 13 13 13 13 13 12 12 12 12 12 12 12 12 11 11 11 11 11 11 11 11 11 11 11 11 11 11 11 11 11 11 11 10 10 10 10 10 10 10 10
13 13 13 13 13 12 12 12 12 12 12 12 12 12 11 11 11 11 11 11 11 11 11 11 11 10 10 10 10 10 10 10 10 10 10 10 10 10 10 10 10 10 9 9
12 12 13 12 12 12 12 12 12 12 11 11 11 11 11 11 11 11 11 11 11 11 10 10 10 10 10 10 10 10 10 10 10 10 10 10 10 10 9 9 9 9 9 8
12 12 12 12 12 12 12 12 12 11 11 11 11 11 11 11 11 11 11 11 10 10 10 10 10 10 10 10 9 9 10 9 9 9 9 9 9 9 9 8 8 8 8 7
11 11 11 11 11 11 11 11 11 11 11 11 11 11 11 11 11 11 11 10 10 10 10 10 10 9 9 9 9 9 9 9 9 9 8 8 8 8 8 8 7 7 7 7
11 11 11 11 11 11 11 11 11 11 11 11 11 11 11 10 11 11 11 10 10 10 9 9 9 9 9 8 8 8 8 8 8 8 8 7 7 7 7 7 6 6 6 6
11 11 11 11 11 11 11 11 11 11 11 10 10 10 10 10 10 11 10 10 9 9 9 9 8 8 8 8 8 8 8 7 7 7 7 6 6 6 6 6 6 5 5 5
10 10 10 10 10 11 10 10 10 10 10 10 10 10 10 10 10 10 9 9 9 8 8 8 8 8 7 7 7 7 7 7 6 6 6 6 5 5 5 5 5 5 4 4
10 10 10 10 10 10 10 10 11 10 10 10 10 10 10 9 9 9 9 8 8 8 8 8 7 7 7 7 7 6 6 6 6 5 5 5 5 4 4 4 4 4 4 4
10 10 10 10 10 9 10 10 10 10 10 9 9 9 9 9 8 8 8 8 8 7 7 7 7 7 6 6 6 5 5 5 5 5 4 4 4 4 4 4 4 4 4 4
Wind_Speed
14 11 10 11 12 14 15 15 14 11 9 7 6 9 11 14 16 18 19 19 20 19 18 18 18 17 17 16 16 15 15 14 14 13 12 11 11 11 10 10 10 9 9 9
13 12 12 14 14 14 15 15 15 14 12 6 4 7 10 13 16 18 19 21 21 20 19 19 19 18 18 17 16 16 15 15 14 13 13 12 12 11 11 11 10 10 10 10
12 10 10 14 15 16 15 14 13 14 10 5 5 7 9 12 15 17 19 20 21 21 20 19 19 18 18 17 16 16 15 15 14 14 13 13 13 12 12 11 11 11 11 11
9 8 12 7 4 9 12 12 11 11 8 5 5 5 6 8 11 14 16 17 19 19 19 18 18 18 17 16 16 16 15 15 14 14 14 13 13 12 12 11 10 11 11 11
8 11 11 6 4 5 8 8 7 8 7 4 3 5 6 5 7 11 13 14 14 16 17 17 17 17 17 16 16 16 16 15 14 14 13 13 13 12 11 11 10 11 11 11
9 10 9 3 2 1 4 6 1 2 3 2 4 7 3 2 3 6 9 10 12 13 13 14 15 16 16 16 16 15 15 14 13 12 12 12 12 11 10 10 10 10 10 10
12 11 7 2 2 4 6 0 4 2 1 1 2 2 2 1 2 4 6 8 10 11 11 11 13 14 14 14 14 13 12 12 11 11 11 11 10 9 9 9 9 10 10 10
8 9 5 3 1 1 3 4 3 3 2 2 2 2 3 4 4 5 7 9 10 10 10 10 11 12 12 11 11 11 11 11 11 10 9 9 9 8 8 8 9 10 10 10
3 1 3 3 3 3 3 3 2 2 2 2 3 4 5 5 5 6 7 8 9 10 10 9 9 10 10 9 9 10 10 9 9 9 8 7 8 8 8 8 8 8 8 9
4 2 2 3 3 2 2 2 1 2 2 3 4 5 6 6 6 7 7 8 9 10 11 9 9 8 8 8 9 10 9 8 7 7 7 7 6 6 7 7 7 8 8 9
5 3 2 2 4 3 3 3 3 4 4 5 6 6 7 7 7 7 7 8 8 9 9 10 9 8 8 8 8 9 8 8 7 6 5 4 5 4 6 6 5 6 7 8
4 3 4 3 2 3 4 4 5 6 7 7 7 7 8 8 8 8 8 9 9 10 10 10 10 9 7 7 7 7 6 6 5 4 4 4 4 5 7 8 5 7 9 10
4 4 2 0 2 4 5 6 7 8 8 8 9 9 9 9 9 10 9 9 10 10 10 10 10 9 7 6 6 5 4 4 3 3 3 3 3 4 5 7 11 13 13 13
1 1 2 2 4 6 8 9 9 10 10 10 9 10 10 11 11 11 10 9 10 10 9 9 9 8 7 6 5 4 3 2 1 1 2 2 3 4 5 7 6 6 10 14
1 1 3 6 8 9 9 10 10 11 11 11 10 10 10 10 11 10 10 9 10 10 9 9 9 7 5 5 5 4 2 1 0 1 2 3 4 5 6 7 7 8 9 7
3 6 9 10 10 10 11 11 11 11 10 10 10 10 10 10 10 9 9 9 9 9 8 7 7 6 4 4 3 2 1 2 1 3 4 4 5 6 6 7 8 9 9 9
7 9 10 11 11 11 11 11 11 10 10 10 9 9 9 9 9 9 9 8 8 8 7 6 5 4 3 2 1 1 1 1 3 5 5 5 6 7 7 8 9 9 9 8
7 9 10 11 11 12 11 10 10 9 8 8 8 7 7 7 8 7 7 7 7 7 6 5 5 4 3 2 2 3 2 3 4 4 5 6 6 8 8 9 10 11 10 9
11 11 11 11 12 11 10 9 8 7 7 7 7 7 6 6 6 6 5 5 4 4 4 3 2 1 1 2 3 2 4 5 5 5 6 6 7 8 8 9 10 10 10 10
11 11 11 11 10 10 9 7 6 6 6 5 5 6 6 5 4 3 3 2 3 3 2 2 1 1 2 2 4 5 5 6 7 7 7 7 8 8 9 10 10 10 10 10
10 9 9 8 8 7 6 6 6 5 5 4 4 4 4 4 3 2 1 1 2 2 1 2 2 2 3 4 5 6 6 7 7 7 8 8 9 9 10 10 10 10 10 10
8 7 7 6 6 5 5 4 4 4 3 3 3 3 2 1 1 1 1 2 1 2 3 3 3 5 6 7 6 7 7 7 8 8 8 9 9 10 10 10 10 10 10 11
5 5 5 4 4 4 4 3 3 3 2 2 2 1 2 3 3 3 3 2 2 2 4 3 4 4 6 7 7 7 8 8 8 8 9 9 10 10 10 11 10 10 10 10
4 4 4 3 3 2 2 2 2 1 1 1 1 2 3 4 4 4 4 2 1 3 4 2 2 3 8 7 7 8 8 8 8 9 9 9 10 10 10 10 10 10 11 12
3 3 3 2 1 1 1 0 1 1 2 2 2 3 3 3 4 4 4 4 2 4 5 2 4 5 7 7 7 8 8 7 8 9 10 9 10 10 10 10 10 10 10 10
2 1 1 1 2 2 2 2 2 2 3 3 4 4 4 4 4 5 5 5 6 5 6 5 4 5 6 7 7 8 8 8 8 8 9 9 10 10 10 10 12 10 10 10
1 1 1 1 1 2 3 3 3 4 4 5 5 5 5 5 5 5 6 6 6 5 6 6 6 6 6 7 7 7 7 8 8 8 9 9 9 9 10 10 9 9 10 10
Wind_Direction
259 264 256 246 238 225 229 245 259 261 259 255 218 207 197 193 189 188 188 190 190 190 190 190 190 191 193 193 191 189 191 194 194 194 193 195 195 197 200 205 209 211 217 221
252 250 250 251 246 237 236 245 253 261 264 264 239 214 201 195 196 195 195 195 194 193 192 192 192 193 193 193 190 189 193 195 193 193 193 195 198 201 204 208 213 216 222 227
248 249 249 246 239 237 237 239 247 254 256 248 228 217 211 202 201 202 200 198 197 196 196 195 194 193 193 191 188 189 193 194 192 194 196 198 202 203 207 210 214 219 225 231
248 239 243 247 246 244 244 248 248 254 262 252 251 234 220 213 208 207 204 201 198 197 196 195 193 192 192 188 187 190 193 195 193 195 198 199 203 206 209 214 218 222 227 232
239 237 245 235 230 235 239 250 253 248 252 262 252 210 198 205 211 210 205 201 198 197 195 191 190 188 187 187 188 191 194 195 195 195 197 199 204 208 211 214 220 225 230 234
236 243 247 232 136 207 242 238 357 263 249 244 225 226 174 127 196 196 192 187 185 184 183 182 182 181 183 186 188 192 193 194 193 194 197 202 206 210 212 216 224 231 234 236
238 243 249 60 129 202 230 78 38 18 341 229 217 330 22 80 149 157 158 159 158 159 163 168 171 174 182 184 188 190 187 186 186 192 198 202 205 208 212 218 226 235 243 243
232 237 234 55 202 260 15 19 17 25 46 78 87 67 71 88 109 125 135 142 144 144 145 149 158 165 172 178 179 176 175 178 181 186 196 195 198 206 212 220 225 234 241 250
266 279 50 25 8 356 335 333 355 23 62 102 103 92 84 86 97 109 118 128 137 138 133 135 147 156 163 165 164 164 165 169 172 178 187 193 196 204 213 220 236 242 245 252
266 244 5 3 10 7 17 17 38 88 104 116 114 103 95 93 95 101 108 117 124 127 127 128 132 138 142 144 149 152 155 159 165 175 184 189 203 213 224 230 239 250 259 265
270 291 316 45 28 32 54 71 91 99 98 102 108 104 100 97 93 97 104 110 116 120 123 123 124 125 127 132 140 144 148 153 162 175 188 194 204 224 237 244 255 262 271 276
296 328 318 330 20 73 89 89 93 99 96 90 91 94 93 92 92 94 98 104 107 109 112 114 115 114 115 122 132 139 145 152 163 175 182 204 217 225 218 238 235 239 252 270
292 308 307 181 112 103 105 100 95 93 93 92 87 89 92 92 91 92 93 96 101 104 107 109 108 107 109 118 126 130 137 150 166 181 190 218 240 256 262 238 227 234 236 238
305 209 158 130 110 108 110 104 98 91 85 83 84 86 87 88 86 85 86 91 96 100 102 103 102 103 111 117 117 117 129 136 173 187 228 244 258 268 274 282 281 271 238 224
26 151 139 122 114 110 108 105 100 93 88 84 82 82 84 84 84 83 84 89 93 94 95 97 97 96 101 108 106 108 113 105 61 288 270 274 279 281 283 284 286 289 293 266
115 122 122 118 113 110 105 100 96 93 90 88 85 81 81 83 85 84 85 86 88 86 86 88 90 92 94 95 101 114 115 91 300 284 276 278 282 283 285 286 287 290 293 298
123 123 121 115 110 104 97 94 93 92 92 89 90 93 95 92 88 84 84 84 83 84 84 82 79 77 76 71 33 336 316 237 227 268 283 291 292 291 292 292 293 294 295 302
107 113 116 116 113 105 99 94 91 90 92 98 100 97 97 96 93 91 89 88 84 78 71 66 62 55 48 32 352 332 311 297 290 293 295 293 297 292 290 292 295 296 297 293
101 107 109 110 110 107 103 96 92 90 90 92 94 96 96 94 93 92 90 90 89 84 71 64 68 56 30 1 327 289 301 302 298 296 294 290 282 288 296 298 300 300 302 305
94 96 101 107 108 105 103 100 96 92 89 90 90 91 90 88 89 88 88 79 64 54 50 23 343 322 315 320 308 299 300 300 300 302 300 298 300 302 302 303 305 306 306 306
88 90 95 99 98 99 101 106 107 104 103 99 94 91 90 91 93 86 59 60 75 50 336 260 269 310 323 333 286 296 302 303 303 303 301 300 301 302 302 303 303 304 305 305
92 93 94 96 99 93 87 90 95 98 102 98 87 77 73 62 20 335 318 338 359 40 309 302 328 19 351 315 298 304 306 304 302 303 302 302 302 302 301 301 302 303 305 306
95 93 89 88 87 88 83 75 69 66 66 66 63 28 356 339 328 316 315 343 329 358 309 323 33 20 316 295 302 305 306 306 305 304 304 305 304 304 303 302 302 303 303 304
84 83 78 72 70 81 78 63 53 36 14 331 333 332 309 304 306 312 331 26 351 321 303 39 66 301 284 291 301 305 307 307 306 305 305 304 303 303 303 304 304 305 305 305
66 69 75 58 41 44 62 268 247 254 275 301 312 318 310 316 316 321 319 313 305 283 295 248 197 258 285 302 307 312 313 316 314 311 305 305 305 305 305 305 306 305 304 303
49 13 20 7 1 324 311 313 315 320 320 319 318 323 323 319 313 307 300 298 300 297 295 299 295 278 298 309 315 317 316 315 309 304 308 309 307 306 304 306 306 305 303 303
336 329 312 313 331 331 325 322 319 321 322 322 320 320 318 316 311 311 307 304 306 307 308 309 308 308 313 316 318 319 318 316 315 315 314 313 311 308 308 307 305 303 302 300
Height
1451 1447 1448 1450 1451 1453 1456 1453 1455 1451 1448 1446 1448 1452 1457 1461 1466 1470 1475 1479 1483 1488 1492 1496 1500 1504 1508 1512 1515 1518 1521 1524 1527 1529 1531 1533 1534 1536 1537 1538 1540 1541 1541 1542
1454 1449 1448 1450 1447 1448 1449 1448 1448 1447 1446 1442 1447 1451 1454 1458 1462 1466 1470 1474 1479 1483 1487 1491 1495 1499 1503 1507 1510 1514 1517 1520 1523 1525 1527 1529 1531 1533 1534 1535 1537 1537 1538 1539
1457 1449 1451 1454 1444 1443 1443 1441 1443 1446 1443 1442 1446 1449 1452 1455 1458 1461 1465 1469 1473 1478 1482 1485 1490 1494 1498 1502 1506 1509 1513 1516 1518 1521 1523 1525 1528 1529 1531 1532 1533 1534 1534 1535
1455 1458 1467 1442 1433 1434 1437 1437 1437 1439 1439 1442 1446 1448 1451 1453 1455 1457 1461 1465 1469 1473 1477 1481 1485 1490 1494 1498 1502 1505 1508 1511 1514 1517 1519 1521 1523 1525 1526 1528 1529 1530 1530 1530
1456 1457 1449 1439 1436 1436 1438 1439 1436 1438 1440 1443 1445 1446 1448 1450 1452 1454 1457 1460 1464 1468 1473 1477 1481 1485 1489 1494 1497 1500 1504 1507 1510 1512 1515 1517 1519 1521 1522 1523 1524 1525 1525 1526
1454 1458 1456 1439 1435 1438 1440 1443 1439 1440 1441 1443 1443 1441 1443 1449 1450 1452 1454 1457 1461 1465 1469 1472 1476 1480 1484 1488 1492 1496 1499 1502 1505 1508 1510 1513 1515 1516 1518 1519 1520 1520 1521 1521
1451 1452 1441 1435 1438 1439 1447 1446 1444 1443 1443 1444 1444 1445 1448 1448 1449 1450 1452 1454 1457 1461 1464 1468 1472 1476 1480 1484 1488 1491 1495 1498 1501 1503 1506 1508 1510 1512 1513 1514 1515 1516 1516 1516
1448 1452 1447 1439 1438 1440 1444 1445 1445 1445 1445 1445 1447 1447 1447 1448 1448 1449 1451 1452 1455 1458 1461 1465 1469 1473 1477 1480 1484 1487 1491 1494 1496 1499 1502 1504 1506 1507 1508 1509 1510 1510 1510 1510
1443 1445 1444 1443 1444 1446 1446 1446 1446 1446 1446 1447 1447 1448 1448 1449 1449 1450 1451 1452 1455 1457 1459 1463 1467 1471 1474 1478 1481 1484 1487 1490 1493 1495 1497 1499 1501 1502 1503 1504 1505 1505 1506 1505
1445 1441 1443 1445 1445 1446 1446 1446 1446 1447 1447 1447 1448 1449 1450 1450 1450 1451 1452 1453 1455 1457 1459 1462 1466 1469 1472 1476 1478 1481 1484 1487 1489 1491 1493 1495 1496 1498 1499 1500 1500 1500 1500 1500
1444 1443 1444 1445 1446 1446 1446 1447 1447 1448 1448 1449 1449 1450 1451 1451 1452 1452 1452 1454 1455 1457 1460 1462 1465 1468 1471 1474 1477 1479 1482 1484 1487 1489 1491 1492 1492 1493 1494 1495 1495 1495 1494 1494
1444 1445 1446 1447 1447 1447 1447 1448 1449 1449 1450 1451 1451 1452 1452 1452 1453 1454 1454 1455 1456 1458 1461 1463 1465 1467 1471 1473 1476 1479 1481 1482 1485 1487 1488 1489 1489 1489 1489 1490 1489 1488 1487 1487
1447 1446 1447 1447 1448 1448 1449 1450 1450 1451 1452 1452 1453 1454 1454 1454 1455 1455 1456 1458 1458 1460 1462 1464 1466 1468 1471 1474 1475 1477 1480 1481 1483 1484 1485 1485 1486 1486 1486 1485 1484 1482 1481 1480
1446 1447 1447 1448 1449 1450 1451 1451 1452 1453 1453 1454 1455 1456 1456 1456 1457 1458 1459 1460 1461 1462 1464 1466 1467 1469 1472 1474 1475 1476 1478 1480 1480 1481 1482 1482 1482 1482 1482 1481 1480 1478 1476 1474
1446 1447 1448 1449 1450 1452 1452 1453 1454 1455 1456 1457 1458 1459 1460 1460 1460 1461 1462 1463 1464 1465 1466 1468 1469 1471 1473 1474 1474 1476 1477 1478 1479 1479 1479 1479 1479 1478 1477 1476 1475 1473 1471 1469
1447 1448 1449 1451 1452 1454 1455 1456 1457 1458 1459 1460 1461 1462 1463 1463 1464 1464 1465 1466 1467 1467 1469 1470 1471 1472 1473 1474 1474 1475 1476 1476 1476 1477 1477 1476 1475 1474 1473 1472 1470 1468 1466 1464
1448 1450 1451 1453 1455 1456 1458 1460 1460 1462 1463 1464 1464 1465 1466 1467 1467 1467 1468 1469 1469 1470 1471 1472 1473 1473 1473 1474 1474 1475 1475 1475 1474 1474 1474 1473 1472 1471 1469 1467 1465 1463 1461 1459
1451 1452 1454 1456 1457 1459 1461 1463 1464 1465 1466 1467 1467 1468 1469 1469 1470 1470 1471 1471 1471 1472 1473 1473 1473 1473 1474 1474 1474 1474 1474 1474 1473 1472 1471 1469 1468 1466 1465 1462 1460 1458 1456 1454
1455 1456 1458 1460 1461 1462 1464 1466 1467 1468 1469 1469 1469 1470 1471 1471 1472 1472 1473 1473 1473 1473 1474 1474 1473 1473 1473 1473 1472 1472 1472 1471 1470 1469 1467 1465 1464 1462 1460 1458 1456 1453 1451 1449
1459 1460 1462 1463 1465 1466 1467 1468 1469 1470 1470 1471 1471 1472 1472 1473 1473 1474 1474 1474 1474 1474 1474 1473 1473 1473 1472 1472 1470 1470 1469 1468 1467 1465 1463 1462 1460 1458 1456 1454 1451 1449 1446 1444
1463 1464 1465 1467 1468 1469 1470 1471 1471 1472 1472 1473 1473 1474 1474 1474 1475 1475 1475 1474 1474 1473 1473 1472 1472 1471 1470 1469 1468 1467 1466 1465 1463 1461 1460 1458 1456 1454 1451 1449 1447 1444 1441 1439
1467 1468 1469 1470 1470 1471 1472 1473 1473 1473 1474 1474 1474 1474 1475 1475 1475 1475 1474 1474 1473 1472 1472 1472 1471 1469 1467 1466 1466 1464 1463 1461 1459 1457 1455 1453 1451 1449 1447 1444 1442 1439 1436 1434
1469 1470 1471 1472 1472 1473 1473 1474 1474 1474 1474 1474 1474 1474 1475 1474 1474 1474 1473 1473 1472 1470 1469 1469 1467 1465 1464 1463 1462 1461 1459 1457 1455 1453 1451 1449 1447 1444 1442 1439 1437 1434 1431 1428
1471 1471 1472 1473 1473 1473 1474 1474 1474 1474 1474 1474 1474 1474 1473 1473 1473 1472 1471 1470 1469 1467 1467 1465 1463 1462 1460 1460 1458 1457 1454 1452 1450 1448 1446 1444 1442 1439 1437 1434 1431 1429 1426 1422
1472 1472 1473 1473 1473 1473 1474 1474 1474 1474 1473 1473 1473 1472 1472 1471 1471 1470 1469 1467 1466 1464 1464 1462 1460 1458 1457 1456 1454 1452 1450 1448 1445 1443 1441 1439 1436 1434 1431 1428 1426 1423 1419 1416
1473 1473 1473 1473 1473 1473 1473 1473 1473 1472 1472 1472 1471 1470 1469 1469 1468 1467 1466 1464 1463 1461 1460 1459 1457 1455 1454 1452 1450 1448 1446 1443 1441 1439 1436 1434 1431 1428 1425 1423 1420 1417 1414 1411
1473 1472 1472 1472 1472 1472 1472 1472 1471 1471 1470 1470 1469 1468 1467 1466 1465 1464 1462 1461 1460 1458 1457 1455 1454 1452 1450 1448 1446 1444 1441 1439 1437 1434 1432 1429 1426 1423 1420 1417 1414 1411 1408 1405